Printer-friendly version

IAU Minor Planet Center

Minor Planet Center

MPEC 2006-S20 : 2006 SF6

The following Minor Planet Electronic Circular may be linked-to from your own Web pages, but must not otherwise be redistributed electronically.


Read MPEC 2006-S19 Read MPEC 2006-S21


M.P.E.C. 2006-S20                                Issued 2006 Sept. 18, 19:43 UT

     The Minor Planet Electronic Circulars contain information on unusual
         minor planets and routine data on comets.  They are published
   on behalf of Commission 20 of the International Astronomical Union by the
          Minor Planet Center, Smithsonian Astrophysical Observatory,
                          Cambridge, MA 02138, U.S.A.

                  Supported in part by the Brinson Foundation
                  Supported in part by the TABASGO Foundation
             Prepared using the Tamkin Foundation Computer Network

                              MPC@CFA.HARVARD.EDU
          URL http://cfa-www.harvard.edu/iau/mpc.html  ISSN 1523-6714

                                   2006 SF6

Observations:
     K06S06F* C2006 09 17.26607 23 59 01.78 +26 39 01.9          18.7 V ES020703
     K06S06F  C2006 09 17.27575 23 58 59.66 +26 38 48.4          18.6 V ES020703
     K06S06F  C2006 09 17.28542 23 58 57.46 +26 38 35.3          18.3 V ES020703
     K06S06F  C2006 09 17.50550 23 58 08.64 +26 33 08.1          18.3 V ES020703
     K06S06F  C2006 09 17.50638 23 58 08.45 +26 33 07.3          18.4 V ES020703
     K06S06F  C2006 09 17.50724 23 58 08.30 +26 33 05.4          18.1 V ES020703
     K06S06F  C2006 09 17.50811 23 58 08.17 +26 33 04.8          18.2 V ES020703
     K06S06F  C2006 09 17.76162 23 57 18.66 +26 26 46.2          17.9 R ES020A50
     K06S06F  C2006 09 17.76309 23 57 18.34 +26 26 44.3          18.0 R ES020A50
     K06S06F  C2006 09 17.76456 23 57 18.06 +26 26 42.6          17.9 R ES020A50
     K06S06F  C2006 09 17.76603 23 57 17.72 +26 26 40.1          18.0 R ES020A50
     K06S06F  C2006 09 18.18098 23 55 50.37 +26 16 29.6          18.1 V ES020703
     K06S06F  C2006 09 18.18938 23 55 48.64 +26 16 15.9          17.9 V ES020703
     K06S06F  C2006 09 18.19776 23 55 46.66 +26 16 05.1          18.5 V ES020703
     K06S06F  C2006 09 18.28349 23 55 27.40 +26 13 58.1          18.3 R ES020854
     K06S06F  C2006 09 18.28688 23 55 26.60 +26 13 53.1          18.3 R ES020854
     K06S06F  C2006 09 18.28940 23 55 26.04 +26 13 49.2          18.4 R ES020854
     K06S06F  C2006 09 18.33462 23 55 15.80 +26 12 36.4          17.7 R ES020682
     K06S06F  C2006 09 18.34556 23 55 13.31 +26 12 19.4          17.7 R ES020682
     K06S06F  C2006 09 18.35347 23 55 11.08 +26 12 04.5          17.8 R ES020734
     K06S06F  C2006 09 18.35424 23 55 10.89 +26 12 03.6          17.9 R ES020734
     K06S06F  C2006 09 18.35500 23 55 10.72 +26 12 02.4          17.8 R ES020734
     K06S06F  C2006 09 18.35578 23 55 10.54 +26 12 01.1          17.8 R ES020734
     K06S06F  C2006 09 18.35653 23 55 10.81 +26 12 02.1          17.6 R ES020682
     K06S06F 5C2006 09 18.37141 23 55 07.75 +26 11 41.7          18.1 R ES020673
     K06S06F 5C2006 09 18.37818 23 55 06.22 +26 11 31.0                 ES020673
     K06S06F 5C2006 09 18.38270 23 55 05.20 +26 11 24.0                 ES020673
     K06S06F 5C2006 09 18.38744 23 55 04.13 +26 11 16.5                 ES020673

Observer details:
673 Table Mountain Observatory, Wrightwood.  Observer J. Young.  0.61-m f/16
    Cassegrain + CCD.
682 Kanab.  Observer E. Sheridan.  0.36-m f/5.5 Schmidt-Cassegrain + CCD.
703 Catalina Sky Survey.  Observers A. R. Gibbs, R. A. Kowalski.  Measurers
    E. C. Beshore, E. J. Christensen, G. J. Garradd, A. R. Gibbs, A. D. Grauer,
    R. E. Hill, R. A. Kowalski, S. M. Larson, R. H. McNaught.  0.68-m Schmidt
    + CCD.
734 Farpoint Observatory.  Observer D. Tibbets.  Measurer G. Hug.  0.7-m
    reflector + CCD.
854 Sabino Canyon Observatory, Tucson.  Observer J. E. McGaha.  0.36-m f/10.0
    Schmidt-Cassegrain + CCD.
A50 Andrushivka Astronomical Observatory.  Observers O. Gerashchenko,
    Y. Ivashchenko.  0.6-m reflector + CCD.

Orbital elements:
2006 SF6                                            PHA, Earth MOID = 0.0186 AU
Epoch 2006 Sept. 22.0 TT = JDT 2454000.5                MPC
M 191.31782              (2000.0)            P               Q
n   1.06595644     Peri.  305.49547     -0.98988587     -0.12011507
a   0.9490951      Node   227.73512     +0.13856105     -0.93277637
e   0.2788557      Incl.    5.85457     -0.03044326     -0.33985381
P   0.92           H   20.0           G   0.15           U   9
Residuals in seconds of arc
060917 703  0.1-  0.1-    060917 A50  0.0   0.4+    060918 734  0.5+  0.0
060917 703  0.5+  0.0     060918 703  0.5-  0.1+    060918 734  0.5+  0.0
060917 703  0.0   0.5+    060918 703  1.3+  1.4-    060918 734  0.4+  0.0
060917 703  0.5-  0.7-    060918 703  0.2-  0.0     060918 682  1.4-  0.5-
060917 703  0.5-  0.2-    060918 854  0.2+  0.3+    060918 673  0.2+  0.3+
060917 703  0.1-  0.8-    060918 854  0.2-  0.4+    060918 673  0.2+  0.1+
060917 703  0.7+  0.0     060918 854  0.1-  0.3+    060918 673  0.2+  0.2+
060917 A50  0.2-  0.3+    060918 682  0.8-  0.1-    060918 673  0.3+  0.1+
060917 A50  0.2-  0.5+    060918 682  1.1-  0.2-
060917 A50  0.3+  0.9+    060918 734  0.7+  0.3-

Ephemeris:
2006 SF6                 a,e,i = 0.95, 0.28, 6                   q = 0.6844
Date    TT    R. A. (2000) Decl.     Delta      r     Elong.  Phase     V
2006 09 12    00 16.50   +28 22.1    0.244    1.214   144.5    28.8    18.6
2006 09 22    23 42.14   +24 28.2    0.224    1.211   154.8    20.7    18.2
2006 10 02    23 07.33   +18 10.7    0.218    1.202   154.6    20.9    18.1
2006 10 12    22 40.10   +10 54.9    0.227    1.188   143.3    30.1    18.5
2006 10 22    22 23.71   +04 17.6    0.246    1.168   129.7    41.0    18.9
2006 11 01    22 17.55   -00 54.1    0.271    1.142   117.2    50.6    19.3
2006 11 11    22 19.20   -04 41.1    0.298    1.112   106.5    58.6    19.7
2006 11 21    22 26.27   -07 22.8    0.321    1.076    97.2    65.6    20.0
2006 12 01    22 36.88   -09 19.0    0.339    1.036    88.8    72.1    20.3
2006 12 11    22 49.22   -10 49.7    0.349    0.991    80.9    78.8    20.4
2006 12 21    23 01.61   -12 13.9    0.350    0.943    73.0    86.2    20.6
2006 12 31    23 11.92   -13 52.3    0.341    0.893    64.7    95.1    20.8

Kyle E. Smalley              (C) Copyright 2006 MPC           M.P.E.C. 2006-S20

Read MPEC 2006-S19 Read MPEC 2006-S21


Our Web policy. Index to the CBAT/MPC/ICQ pages.


Valid HTML 4.01!